IU1DOF-3 Weather Reports


Display with metric or nautical units.
time (UTC)temp
F
wind
direction
speed
MPH
gust
MPH
rain 1hr
in
rain 24hr
in
rain mn
in
humidity
%
barometer
mb
20260504060133 51 299 0.0 0.0 0.00 0.00 0.00 89 1015.6
20260504045021 50 299 0.0 0.0 0.00 0.00 0.00 89 1015.2
20260504043958 50 299 0.0 0.0 0.00 0.00 0.00 89 1015.0
20260504042949 50 299 0.0 0.0 0.00 0.00 0.00 89 1015.3
20260504041941 51 299 0.0 0.0 0.00 0.00 0.00 86 1015.1
20260504040933 50 299 0.0 0.0 0.00 0.00 0.00 87 1015.1
20260504035925 50 299 0.0 0.0 0.00 0.00 0.00 88 1015.3
20260504034917 50 299 1.0 1.0 0.00 0.00 0.00 88 1015.1
20260504033909 50 299 0.0 0.0 0.00 0.00 0.00 89 1015.2
20260504032901 50 299 0.0 0.0 0.00 0.00 0.00 88 1015.1
20260504031843 51 299 0.0 0.0 0.00 0.00 0.00 86 1015.2
20260504030830 50 299 1.0 2.0 0.00 0.00 0.00 86 1015.0
20260504025806 50 299 0.0 0.0 0.00 0.00 0.00 88 1015.3
20260504024757 50 299 0.0 0.0 0.00 0.00 0.00 88 1015.6
20260504023749 50 299 0.0 0.0 0.00 0.00 0.00 89 1015.4
20260504022740 51 299 0.0 0.0 0.00 0.00 0.00 86 1015.8
20260504021718 51 299 1.0 1.0 0.00 0.00 0.00 86 1015.7
20260504020709 50 299 0.0 0.0 0.00 0.00 0.00 86 1015.5
20260504015701 50 299 2.0 2.0 0.00 0.00 0.00 87 1015.5
20260504014637 50 299 0.0 0.0 0.00 0.00 0.00 88 1015.6
20260504013629 50 299 0.0 0.0 0.00 0.00 0.00 88 1015.4
20260504012621 51 299 1.0 2.0 0.00 0.00 0.00 84 1015.6
20260504011558 51 299 1.0 2.0 0.00 0.00 0.00 86 1015.6
20260504010541 50 299 0.0 0.0 0.00 0.00 0.00 89 1015.5
20260504005526 50 299 0.0 0.0 0.00 0.00 0.00 88 1015.9
20260504004502 51 299 0.0 0.0 0.00 0.00 0.00 85 1015.6
20260504003453 50 299 0.0 0.0 0.00 0.00 0.00 87 1016.1
20260504002441 50 299 0.0 1.0 0.00 0.00 0.00 88 1015.9
20260504001422 50 299 0.0 0.0 0.00 0.00 0.00 85 1016.2
20260504000358 50 299 0.0 0.0 0.00 0.00 0.00 86 1016.1
20260503235341 51 299 1.0 2.0 0.00 0.00 0.00 85 1016.2
20260503234328 50 299 0.0 0.0 0.00 0.00 0.00 84 1016.3
20260503233302 51 299 0.0 0.0 0.00 0.00 0.00 84 1016.3
20260503232241 51 299 0.0 0.0 0.00 0.00 0.00 84 1016.4
20260503231229 52 299 0.0 0.0 0.00 0.00 0.00 84 1016.4
20260503230207 51 299 0.0 0.0 0.00 0.00 0.00 84 1016.0
20260503225157 52 299 0.0 0.0 0.00 0.00 0.00 85 1016.6
20260503224140 52 299 0.0 0.0 0.00 0.00 0.00 83 1016.7
20260503223125 52 299 0.0 0.0 0.00 0.00 0.00 83 1016.3
20260503222101 52 299 0.0 0.0 0.00 0.00 0.00 83 1016.2
20260503221037 52 299 0.0 0.0 0.00 0.00 0.00 84 1016.5
20260503220015 53 299 0.0 0.0 0.00 0.00 0.00 82 1016.5
20260503214950 52 299 0.0 0.0 0.00 0.00 0.00 82 1016.5
20260503213940 53 299 0.0 0.0 0.00 0.00 0.00 82 1016.4
20260503212918 53 299 0.0 0.0 0.00 0.00 0.00 82 1016.4
20260503211855 53 299 0.0 0.0 0.00 0.00 0.00 82 1016.3
20260503210840 53 299 0.0 0.0 0.00 0.00 0.00 81 1016.5
20260503205822 53 299 0.0 0.0 0.00 0.00 0.00 79 1016.2
20260503204758 53 299 0.0 0.0 0.00 0.00 0.00 79 1016.4
20260503203740 53 299 0.0 0.0 0.00 0.00 0.00 81 1016.4
20260503202725 54 299 0.0 0.0 0.00 0.00 0.00 80 1016.4
20260503201701 54 299 0.0 0.0 0.00 0.00 0.00 80 1016.2
20260503200638 54 299 0.0 0.0 0.00 0.00 0.00 79 1016.0
20260503195614 54 299 0.0 1.0 0.00 0.00 0.00 77 1016.0
20260503194549 55 299 0.0 0.0 0.00 0.00 0.00 77 1015.8
20260503193540 55 299 1.0 1.0 0.00 0.00 0.00 77 1015.9
20260503192517 55 299 2.0 2.0 0.00 0.00 0.00 77 1016.1
20260503191454 55 299 2.0 2.0 0.00 0.00 0.00 75 1015.7
20260503190440 55 299 1.0 2.0 0.00 0.00 0.00 75 1015.9
20260503185421 56 299 1.0 2.0 0.00 0.00 0.00 76 1015.6
20260503184359 56 299 2.0 2.0 0.00 0.00 0.00 75 1015.5
20260503183340 57 299 2.0 2.0 0.00 0.00 0.00 74 1015.5
20260503182326 58 299 2.0 2.0 0.00 0.00 0.00 70 1015.6
20260503181302 58 299 2.0 2.0 0.00 0.00 0.00 67 1015.6
20260503180238 59 299 0.0 0.0 0.00 0.00 0.00 68 1015.4
20260503175214 60 299 1.0 2.0 0.00 0.00 0.00 65 1015.4
20260503174150 60 299 2.0 3.0 0.00 0.00 0.00 63 1015.3
20260503173140 61 299 0.0 0.0 0.00 0.00 0.00 63 1015.5
20260503172118 61 299 0.0 0.0 0.00 0.00 0.00 63 1015.7
20260503171053 61 299 2.0 3.0 0.00 0.00 0.00 63 1015.6
20260503150654 64 299 1.0 2.0 0.00 0.00 0.00 60 1015.5
20260503131318 65 300 4.0 8.0 0.00 0.00 0.00 60 1016.5
20260503130253 64 300 0.0 1.0 0.00 0.00 0.00 62 1016.6
20260503081423 59 300 0.0 0.0 0.00 0.00 0.00 60 1018.0
20260503080358 59 300 0.0 0.0 0.00 0.00 0.00 63 1017.7
20260503072242 57 299 0.0 1.0 0.00 0.00 0.00 65 1018.1
20260503071231 54 300 0.0 0.0 0.00 0.00 0.00 75 1017.9
20260503070206 53 300 0.0 1.0 0.00 0.00 0.00 80 1018.1